This is the latest recevied weather packets stored in our database for station/object WK7G. If no packets are shown the sender has not sent any weather packets the latest 10 day(s).
| Time | Temp. | Humidity | Pressure | Rain* | Wind** | Luminosity | Snow |
|---|---|---|---|---|---|---|---|
| 1777510879 | 6.11° C | 64% | 1013.5 hPa | 0 mm | - | 77 W/m² | - |
| 1777510576 | 6.11° C | 65% | 1013.3 hPa | 0 mm | - | 127 W/m² | - |
| 1777510272 | 6.11° C | 67% | 1013.4 hPa | 0 mm | - | 142 W/m² | - |
| 1777509969 | 5.56° C | 66% | 1013.1 hPa | 0 mm | - | 69 W/m² | - |
| 1777509664 | 5.56° C | 70% | 1013.4 hPa | 0 mm | - | 75 W/m² | - |
| 1777509361 | 5.56° C | 72% | 1013.1 hPa | 0 mm | - | 202 W/m² | - |
| 1777509059 | 5.56° C | 73% | 1013.4 hPa | 0 mm | - | 194 W/m² | - |
| 1777508756 | 5° C | 74% | 1013.1 hPa | 0 mm | - | 215 W/m² | - |
| 1777508453 | 5° C | 76% | 1013.4 hPa | 0 mm | - | 207 W/m² | - |
| 1777508150 | 5° C | 78% | 1013.4 hPa | 0 mm | - | 227 W/m² | - |
| 1777507846 | 4.44° C | 81% | 1013.5 hPa | 0 mm | - | 242 W/m² | - |
| 1777507544 | 4.44° C | 82% | 1013.4 hPa | 0 mm | - | 277 W/m² | - |
| 1777507240 | 3.89° C | 82% | 1013.4 hPa | 0 mm | - | 259 W/m² | - |
| 1777506938 | 4.44° C | 83% | 1013.7 hPa | 0 mm | - | 187 W/m² | - |
| 1777506635 | 3.89° C | 83% | 1013.5 hPa | 0 mm | - | 214 W/m² | - |
| 1777506331 | 3.89° C | 85% | 1013.6 hPa | 0 mm | - | 281 W/m² | - |
| 1777506027 | 3.89° C | 86% | 1013.7 hPa | 0 mm | - | 249 W/m² | - |
| 1777505722 | 3.89° C | 86% | 1013.9 hPa | 0 mm | - | 272 W/m² | - |
| 1777505420 | 3.89° C | 84% | 1013.7 hPa | 0 mm | - | 303 W/m² | - |
| 1777505116 | 3.89° C | 85% | 1013.7 hPa | 1.78 mm | - | 262 W/m² | - |
| 1777504814 | 2.78° C | 84% | 1014.1 hPa | 1.78 mm | - | 195 W/m² | - |
| 1777504511 | 3.33° C | 84% | 1014.2 hPa | 0 mm | - | 167 W/m² | - |
| 1777504206 | 3.33° C | 82% | 1014.3 hPa | 0 mm | - | 150 W/m² | - |
| 1777503902 | 3.33° C | 82% | 1014.5 hPa | 0 mm | - | 127 W/m² | - |
| 1777503598 | 3.33° C | 82% | 1014.6 hPa | 0 mm | - | 112 W/m² | - |
* Rain latest hour (hover to see other rain measurements)
** Current wind speed in m/s (hover to see current wind gust speed)